Wind_Speed
54 52 49 48 48 48 45 42 39 38 38 37 36 34 32 29 26 23 21 18 16 15 13 12 10 9 8 7 5 4 3 3 4 5 6 8 9 9 10 10 10 10 10 10 11 11 12 12 12
55 54 52 51 51 49 46 42 40 41 40 39 37 36 34 31 28 25 21 19 17 15 14 12 11 9 8 7 6 5 4 4 4 6 7 8 9 10 10 10 10 10 10 11 11 12 12 13 13
57 56 55 54 53 50 46 43 43 43 43 41 39 37 35 33 30 26 22 20 18 16 15 13 11 10 8 7 6 5 5 5 6 7 8 9 10 11 11 11 11 11 11 12 12 13 13 14 14
57 58 58 56 54 50 46 45 45 45 45 43 41 39 37 34 31 27 23 21 19 17 16 14 12 10 9 8 7 6 6 7 7 9 10 11 11 12 12 12 12 12 12 13 13 13 14 15 15
57 58 59 58 54 51 48 47 47 47 46 45 43 41 38 35 32 28 25 22 20 18 16 14 12 11 9 8 8 7 8 8 9 10 11 12 13 13 13 13 13 13 13 14 14 15 15 16 16
57 58 59 58 54 51 50 48 48 48 48 46 44 42 40 36 33 30 26 24 21 19 17 15 13 12 10 9 9 8 9 9 10 11 12 13 13 14 14 14 14 15 15 15 16 16 16 17 17
56 57 57 56 55 52 51 50 50 50 49 47 45 43 39 36 34 31 28 25 23 21 18 16 15 13 12 11 10 10 10 11 11 12 13 14 14 15 15 15 16 16 16 16 17 17 18 18 19
55 55 56 56 55 53 52 52 51 51 50 48 46 43 40 37 35 32 30 27 25 22 20 18 17 16 14 13 12 11 11 12 12 13 14 14 15 15 16 16 17 17 18 18 18 19 19 20 21
55 56 57 55 54 53 53 53 53 52 51 49 46 43 40 38 36 34 31 29 27 24 22 20 19 18 16 15 14 13 13 13 14 14 14 15 16 16 17 17 18 19 19 19 19 20 20 21 22
56 56 54 52 52 53 54 54 54 54 52 50 47 44 41 39 37 35 33 31 29 27 25 23 21 20 18 17 16 15 15 15 15 15 16 16 17 17 18 18 19 19 20 20 21 21 22 22 23
56 54 51 51 53 54 56 56 55 55 54 52 49 45 42 40 38 36 35 33 31 29 27 25 23 22 21 19 18 18 17 17 17 17 18 18 19 19 19 19 20 20 21 21 22 23 23 24 25
54 52 51 51 53 55 57 57 57 56 54 53 50 47 44 42 40 38 36 35 32 31 29 27 26 24 23 22 21 20 20 20 19 19 19 20 20 20 20 21 21 22 22 23 23 24 25 26 27
53 52 52 51 52 56 57 57 57 56 54 53 51 48 45 43 42 41 39 36 34 32 31 30 28 27 25 24 24 23 23 22 22 21 21 22 22 22 22 23 23 24 24 24 25 26 27 28 29
51 52 52 51 51 55 58 58 57 56 55 53 51 49 46 44 43 42 40 38 36 35 33 32 30 29 28 27 27 26 25 25 24 24 23 24 24 24 24 25 25 26 26 26 27 28 28 29 31
51 52 53 52 52 52 56 59 57 55 56 54 52 50 48 46 44 43 42 40 39 37 36 34 33 32 31 30 29 29 28 27 27 26 26 26 26 26 26 27 27 28 28 28 29 30 31 32 33
50 52 53 52 51 52 54 58 56 54 54 54 53 51 49 48 45 44 43 42 41 39 38 37 36 35 34 33 32 31 31 30 29 29 28 28 28 28 28 28 29 30 30 31 32 33 34 35 37
50 50 50 49 49 50 52 54 56 55 53 53 53 52 51 49 47 46 44 44 43 42 40 39 38 37 36 35 35 34 33 32 32 32 31 31 30 30 30 30 31 32 33 33 34 35 37 38 39
46 47 47 47 46 47 48 50 53 54 54 53 52 52 51 49 48 47 46 45 45 43 42 41 40 39 39 38 37 36 35 35 35 34 33 33 33 33 33 33 33 34 35 36 37 38 39 40 42
42 42 43 44 44 43 45 48 50 52 52 52 51 50 49 49 49 48 47 47 46 45 44 43 42 42 41 40 39 39 38 37 37 36 35 35 35 35 35 35 36 37 38 39 40 41 41 42 44
41 41 39 40 41 42 44 47 49 51 49 48 49 49 47 47 48 48 48 48 47 46 45 45 44 44 43 42 42 41 40 39 38 38 37 37 37 37 37 37 38 39 40 41 42 43 43 44 45
39 38 37 36 37 39 41 46 48 49 48 46 46 46 47 46 46 47 48 48 47 47 46 46 45 45 44 44 43 42 42 41 40 40 40 39 39 39 39 40 41 42 42 43 44 45 45 46 46
35 36 36 35 36 37 39 41 45 45 48 46 43 43 43 43 43 44 45 46 47 47 47 47 46 46 45 45 44 44 43 42 42 42 41 41 41 41 41 42 43 43 44 44 45 46 47 48 47
33 33 33 34 34 35 37 39 39 41 43 43 42 42 42 42 42 42 42 44 45 45 46 47 47 47 47 47 46 46 45 44 43 43 43 43 43 43 44 44 44 44 45 45 46 47 48 48 48
32 31 31 32 33 34 34 36 37 36 38 39 41 42 42 42 42 43 43 43 43 44 45 46 47 47 47 47 47 47 46 45 45 44 44 44 45 45 45 45 45 45 46 46 47 48 48 48 48
31 31 31 32 32 32 32 34 33 34 36 38 39 40 42 43 43 43 44 44 45 45 46 46 47 48 48 48 48 48 48 48 48 47 47 46 46 46 46 46 46 46 47 47 48 48 48 47 47
30 30 30 31 31 30 29 29 29 31 35 37 39 40 41 42 42 43 44 45 46 46 46 46 47 47 48 48 48 49 49 49 48 48 48 47 47 47 47 47 47 47 47 48 48 47 46 45 45
29 30 29 29 29 29 29 27 27 27 31 36 39 41 42 42 42 43 44 45 46 46 46 46 46 47 47 47 48 48 48 48 48 48 47 47 47 47 47 47 47 47 48 47 46 45 44 43 43
28 28 28 29 28 28 27 26 26 27 30 34 37 40 42 43 44 45 45 46 46 46 47 46 46 46 46 47 47 47 47 47 47 47 47 47 47 47 47 47 47 48 47 45 44 43 42 42 42
26 27 28 28 28 28 26 25 25 26 29 31 35 38 40 42 44 45 47 47 47 47 47 47 47 47 46 46 46 46 46 46 46 46 46 46 46 46 46 46 46 45 44 43 42 42 41 41 41
26 26 27 28 28 27 26 24 24 25 26 29 32 34 37 39 41 43 45 46 47 47 47 47 47 47 46 46 46 45 45 45 45 45 45 46 46 46 45 45 44 42 42 41 40 40 40 40 40
Wind_Direction
219 217 216 214 214 216 215 212 210 210 211 214 217 220 222 223 224 227 225 229 233 234 236 239 242 246 252 256 258 265 278 302 323 333 336 337 336 334 331 329 328 327 327 329 330 329 328 326 325
219 217 216 215 215 216 215 212 210 212 213 215 218 221 223 225 225 227 227 229 232 233 233 234 236 240 246 252 258 268 282 304 320 327 329 329 329 329 328 327 326 325 326 326 325 325 325 324 322
219 218 216 215 215 215 214 212 212 213 214 216 218 222 225 227 227 229 229 229 230 231 230 228 230 234 241 249 260 271 285 301 311 317 321 324 325 325 326 326 326 325 324 324 323 323 322 322 321
219 218 217 215 215 214 214 213 213 215 216 216 218 221 225 227 228 230 230 229 228 228 228 227 227 230 236 247 259 272 285 296 304 311 315 319 321 321 322 324 324 324 323 322 322 321 320 319 318
219 218 218 216 214 213 213 213 214 215 217 217 219 221 225 227 229 230 231 229 227 226 226 227 228 232 237 246 257 269 279 289 299 305 309 313 316 317 318 320 321 321 321 321 321 319 317 316 315
219 218 219 217 214 213 214 214 215 216 218 218 219 221 224 226 229 230 230 228 226 225 226 229 231 236 241 249 258 267 275 284 291 298 304 308 311 313 315 316 318 318 319 319 319 317 315 314 313
218 219 219 217 214 213 214 214 215 217 218 219 219 220 222 225 227 229 228 226 225 225 227 230 235 240 246 253 262 269 274 279 285 291 298 304 306 308 311 313 315 315 316 317 317 316 315 313 312
216 218 218 216 214 212 214 214 216 218 219 220 220 220 221 223 225 227 227 227 226 226 228 232 237 243 249 256 264 271 275 279 283 288 293 298 302 305 307 310 311 312 313 314 314 314 314 312 311
215 217 217 214 213 212 214 215 216 218 220 221 221 220 220 221 222 224 226 227 227 227 229 233 238 245 251 258 265 271 275 280 283 287 290 293 297 300 303 305 307 309 310 311 312 312 312 311 310
215 216 216 214 213 212 214 216 217 218 220 221 221 220 220 221 222 223 225 226 228 229 231 235 240 246 252 258 265 270 274 278 282 285 288 291 294 297 300 302 303 305 307 308 310 310 311 310 309
215 215 214 213 212 211 213 215 217 219 220 221 221 220 220 221 221 223 225 227 228 230 232 236 241 247 253 258 264 269 273 276 280 284 288 291 294 297 299 300 301 303 305 306 308 308 308 308 308
215 214 213 212 212 211 212 214 217 219 221 222 222 221 221 222 221 222 224 226 228 231 234 237 242 248 253 258 263 267 271 275 278 282 286 290 293 295 297 299 301 302 304 305 306 306 306 306 306
213 213 213 213 213 212 212 214 217 219 221 223 223 222 221 222 223 223 224 226 229 231 234 238 243 248 252 257 260 264 268 272 276 279 284 287 291 294 296 298 299 301 302 303 303 304 304 304 304
211 213 214 214 214 214 213 214 216 219 222 224 224 224 222 222 224 225 225 226 229 232 235 239 243 248 252 256 259 262 266 269 273 276 281 284 288 291 293 295 297 298 300 301 301 302 302 302 302
209 211 213 214 214 214 214 215 216 218 222 224 225 225 225 224 224 226 227 227 230 232 236 240 244 248 251 255 259 262 265 268 271 274 278 281 284 287 290 293 294 296 297 298 299 300 300 300 300
209 211 212 213 215 215 215 215 215 218 222 224 226 226 226 226 226 227 229 230 232 234 237 240 244 248 252 255 259 262 265 268 271 273 276 279 282 284 287 289 291 293 295 296 297 297 298 299 299
209 211 212 213 214 215 217 215 214 218 222 224 227 228 228 229 229 229 230 232 233 236 238 241 244 248 251 255 258 261 264 267 270 272 275 277 280 282 284 286 288 290 292 293 294 295 296 297 298
210 212 214 215 216 218 217 217 216 219 221 224 226 228 229 229 230 231 232 233 234 236 239 241 244 247 250 253 257 259 262 265 268 271 273 276 278 280 282 284 286 288 290 291 292 294 295 295 296
210 214 217 219 220 221 220 219 219 219 221 222 225 227 228 230 231 233 234 235 236 238 239 241 244 247 249 252 255 257 260 263 265 268 271 273 276 278 280 283 284 286 288 289 291 292 293 293 294
207 211 215 219 222 224 224 222 221 220 220 222 224 225 227 230 232 233 235 236 237 239 241 243 245 247 249 252 254 256 259 261 264 266 268 271 274 277 279 281 283 285 286 288 289 290 291 292 294
206 210 214 218 221 225 226 227 225 223 222 223 223 225 227 230 232 234 235 236 237 239 241 243 245 247 249 252 254 257 259 261 263 266 268 271 274 276 278 280 282 284 286 288 289 290 292 293 294
205 209 213 217 221 225 228 231 229 228 228 227 226 226 228 229 232 234 235 236 238 240 241 243 245 248 250 252 255 257 259 261 264 266 269 271 274 276 278 280 282 284 286 288 290 291 293 294 295
203 208 214 218 222 227 230 233 229 232 232 231 231 230 230 231 232 235 236 237 238 240 242 244 246 248 250 252 255 257 259 261 263 265 268 271 273 275 278 280 282 284 286 288 290 292 293 294 295
203 208 213 218 222 226 230 235 232 233 235 233 233 235 234 234 235 236 238 239 240 241 243 245 247 249 250 252 254 256 259 260 263 265 268 270 273 275 277 280 282 284 286 288 290 292 293 294 295
205 209 212 217 222 226 229 236 234 231 233 233 234 235 236 236 237 237 239 241 242 243 244 246 247 249 251 253 254 256 259 261 264 266 268 270 273 275 277 280 282 285 286 288 290 292 293 294 294
208 212 216 222 227 230 231 235 234 231 232 233 234 235 236 237 238 239 240 241 243 244 246 247 249 251 252 254 256 258 260 262 264 266 268 270 273 275 277 280 283 285 287 289 291 291 292 293 294
208 213 218 224 230 234 234 234 234 233 232 233 234 236 237 237 238 239 240 242 243 245 247 248 250 251 253 255 257 259 261 262 264 266 268 271 273 275 278 281 283 286 288 289 290 291 292 293 294
211 215 220 225 231 234 234 234 235 236 236 235 236 237 238 239 240 240 241 242 244 245 247 249 250 252 254 255 257 259 261 263 265 267 270 272 274 277 279 281 284 286 287 289 290 291 292 293 294
216 220 225 229 234 237 237 236 238 241 240 239 239 239 240 241 242 242 242 243 245 246 248 249 250 252 254 256 258 260 262 264 266 268 270 273 275 278 280 282 284 285 287 288 290 291 292 293 294
222 225 229 233 238 241 242 239 243 246 246 245 244 243 242 243 244 246 246 246 247 248 249 250 251 253 254 256 258 261 263 265 266 269 271 274 276 278 280 282 283 284 286 288 289 290 291 292 293
Height
5792 5799 5806 5812 5818 5823 5830 5838 5843 5847 5850 5854 5858 5862 5867 5871 5875 5881 5881 5882 5884 5885 5887 5888 5889 5890 5891 5892 5893 5893 5893 5894 5894 5894 5894 5894 5894 5894 5894 5893 5893 5892 5891 5891 5890 5889 5888 5888 5887
5784 5792 5799 5805 5811 5818 5827 5834 5839 5843 5846 5850 5855 5859 5863 5867 5871 5875 5878 5880 5882 5884 5885 5886 5888 5889 5890 5891 5891 5892 5892 5893 5893 5893 5893 5893 5893 5893 5892 5892 5891 5891 5890 5890 5889 5888 5887 5886 5885
5777 5784 5791 5798 5805 5814 5823 5829 5834 5837 5842 5847 5852 5856 5860 5864 5868 5872 5875 5878 5880 5882 5883 5885 5886 5887 5889 5890 5890 5891 5891 5892 5892 5892 5892 5892 5892 5892 5891 5891 5890 5889 5889 5888 5887 5886 5886 5885 5884
5769 5776 5783 5792 5801 5811 5818 5824 5828 5833 5837 5843 5848 5852 5857 5861 5865 5869 5872 5875 5878 5880 5881 5883 5885 5886 5887 5888 5889 5890 5890 5891 5891 5891 5891 5891 5891 5890 5890 5889 5889 5888 5887 5887 5886 5885 5884 5883 5882
5761 5768 5776 5786 5797 5805 5811 5817 5823 5827 5833 5838 5844 5849 5853 5858 5862 5865 5869 5872 5875 5877 5879 5881 5883 5884 5886 5887 5888 5888 5889 5889 5889 5890 5890 5890 5889 5889 5888 5888 5887 5887 5886 5885 5884 5883 5882 5881 5880
5754 5761 5771 5782 5792 5800 5805 5811 5817 5822 5828 5834 5840 5845 5850 5854 5858 5862 5866 5869 5872 5875 5877 5879 5881 5882 5884 5885 5886 5887 5887 5888 5888 5888 5888 5888 5887 5887 5887 5886 5885 5885 5884 5883 5882 5881 5880 5879 5878
5748 5756 5766 5777 5786 5793 5799 5805 5811 5816 5822 5829 5835 5841 5846 5851 5855 5859 5862 5866 5869 5872 5874 5876 5878 5880 5882 5883 5884 5885 5886 5886 5886 5886 5886 5886 5885 5885 5885 5884 5884 5883 5882 5881 5880 5879 5878 5877 5876
5740 5750 5759 5768 5778 5787 5793 5799 5805 5811 5817 5824 5830 5837 5843 5847 5852 5855 5859 5862 5866 5869 5871 5874 5876 5877 5879 5880 5882 5883 5883 5884 5884 5884 5884 5884 5883 5883 5883 5882 5881 5881 5880 5879 5878 5877 5876 5874 5873
5733 5742 5751 5763 5773 5781 5786 5793 5799 5805 5812 5818 5825 5833 5838 5843 5847 5852 5855 5859 5862 5865 5868 5870 5873 5875 5876 5878 5879 5880 5881 5881 5881 5882 5882 5881 5881 5881 5880 5880 5879 5878 5877 5876 5875 5874 5873 5872 5870
5725 5735 5749 5761 5769 5775 5780 5787 5793 5799 5806 5813 5820 5827 5833 5838 5843 5847 5851 5855 5858 5861 5864 5867 5869 5871 5873 5875 5876 5877 5878 5878 5879 5879 5879 5879 5878 5878 5878 5877 5876 5875 5874 5874 5873 5871 5870 5869 5867
5720 5732 5745 5753 5760 5767 5772 5779 5786 5793 5800 5807 5814 5822 5828 5833 5838 5842 5846 5850 5854 5857 5860 5863 5865 5868 5870 5871 5873 5874 5874 5875 5875 5876 5876 5875 5875 5875 5874 5874 5873 5872 5871 5870 5869 5868 5866 5865 5863
5717 5728 5737 5745 5752 5758 5765 5772 5779 5787 5794 5801 5809 5816 5823 5828 5833 5837 5841 5845 5850 5853 5856 5859 5861 5864 5866 5867 5869 5870 5871 5871 5872 5872 5872 5872 5872 5871 5871 5870 5869 5869 5868 5867 5865 5864 5862 5861 5859
5712 5722 5729 5737 5744 5751 5758 5766 5773 5781 5788 5795 5803 5811 5817 5823 5827 5831 5836 5840 5845 5848 5851 5854 5857 5859 5861 5863 5864 5866 5867 5867 5868 5868 5868 5868 5868 5867 5867 5866 5865 5864 5864 5862 5861 5860 5858 5856 5854
5707 5715 5723 5730 5738 5745 5752 5760 5768 5776 5782 5790 5797 5805 5811 5817 5822 5827 5831 5835 5839 5843 5846 5849 5852 5854 5856 5858 5860 5861 5862 5863 5863 5864 5864 5864 5863 5863 5862 5862 5861 5860 5859 5858 5856 5855 5853 5851 5849
5700 5708 5715 5723 5731 5739 5747 5754 5763 5772 5777 5784 5791 5798 5805 5811 5816 5821 5825 5829 5833 5837 5841 5844 5846 5849 5851 5853 5854 5856 5857 5858 5859 5859 5859 5859 5859 5858 5858 5857 5856 5855 5854 5852 5851 5849 5847 5845 5843
5693 5701 5709 5718 5726 5734 5742 5750 5761 5766 5770 5777 5784 5791 5798 5804 5810 5815 5819 5824 5828 5831 5835 5838 5841 5843 5845 5847 5849 5850 5851 5852 5853 5853 5854 5854 5853 5853 5853 5852 5850 5849 5848 5846 5845 5843 5841 5838 5836
5686 5695 5705 5715 5721 5729 5736 5747 5755 5759 5765 5771 5778 5784 5791 5797 5803 5809 5813 5817 5821 5825 5829 5832 5835 5837 5839 5841 5843 5844 5846 5846 5847 5847 5848 5848 5848 5847 5847 5846 5845 5843 5842 5840 5838 5836 5834 5832 5829
5687 5696 5704 5711 5718 5725 5733 5742 5748 5753 5759 5765 5770 5777 5783 5790 5796 5801 5806 5811 5815 5818 5822 5825 5828 5831 5833 5835 5837 5838 5839 5840 5841 5841 5841 5841 5841 5841 5841 5840 5838 5837 5835 5833 5831 5829 5827 5825 5822
5686 5694 5701 5708 5714 5721 5728 5734 5739 5744 5751 5757 5763 5770 5776 5782 5788 5793 5798 5803 5807 5811 5815 5818 5821 5824 5826 5828 5830 5831 5833 5834 5834 5835 5835 5835 5835 5834 5834 5833 5831 5830 5828 5826 5824 5822 5820 5817 5814
5682 5690 5697 5703 5709 5715 5720 5725 5730 5737 5744 5751 5757 5763 5769 5775 5780 5786 5791 5795 5799 5803 5807 5810 5813 5816 5818 5820 5822 5824 5825 5827 5827 5828 5828 5828 5827 5827 5826 5825 5824 5822 5821 5819 5816 5814 5812 5809 5806
5680 5688 5694 5700 5705 5709 5714 5719 5725 5732 5739 5744 5751 5757 5763 5768 5773 5778 5783 5787 5791 5795 5799 5802 5805 5807 5810 5812 5814 5816 5817 5818 5819 5820 5820 5820 5820 5819 5818 5817 5816 5814 5812 5810 5808 5805 5803 5800 5797
5678 5685 5690 5696 5701 5705 5710 5715 5722 5727 5733 5740 5747 5752 5758 5762 5767 5771 5775 5779 5783 5786 5790 5793 5796 5799 5802 5804 5806 5808 5809 5810 5811 5811 5812 5811 5811 5811 5810 5809 5807 5805 5803 5801 5798 5795 5793 5790 5787
5676 5682 5687 5692 5697 5701 5706 5710 5719 5722 5728 5737 5742 5747 5751 5755 5759 5763 5767 5771 5774 5778 5782 5785 5788 5790 5793 5795 5797 5799 5800 5802 5803 5803 5803 5803 5802 5802 5801 5800 5798 5796 5794 5792 5789 5786 5783 5780 5777
5674 5679 5684 5688 5693 5698 5703 5706 5714 5720 5726 5731 5735 5738 5743 5747 5751 5755 5759 5763 5766 5769 5773 5776 5778 5781 5784 5786 5788 5790 5791 5793 5794 5794 5794 5794 5793 5793 5792 5790 5789 5787 5785 5782 5779 5776 5773 5770 5767
5672 5677 5681 5685 5688 5694 5698 5701 5711 5716 5719 5723 5727 5730 5734 5738 5742 5746 5750 5754 5757 5760 5763 5766 5769 5772 5774 5777 5779 5780 5782 5783 5784 5784 5785 5784 5784 5783 5782 5781 5779 5777 5775 5772 5769 5766 5763 5760 5757
5670 5675 5680 5683 5686 5691 5694 5698 5706 5709 5712 5715 5719 5723 5726 5731 5735 5738 5742 5745 5748 5751 5754 5757 5760 5762 5765 5767 5769 5770 5772 5773 5774 5774 5774 5774 5774 5773 5772 5771 5769 5767 5765 5762 5759 5756 5753 5750 5747
5668 5671 5676 5680 5683 5686 5690 5695 5700 5703 5705 5707 5711 5714 5718 5722 5726 5729 5732 5736 5739 5742 5745 5747 5750 5752 5755 5757 5758 5760 5761 5762 5763 5764 5764 5764 5763 5763 5762 5760 5759 5757 5754 5752 5749 5746 5743 5740 5737
5666 5669 5673 5676 5678 5682 5686 5690 5694 5696 5697 5700 5703 5706 5709 5713 5717 5720 5723 5726 5729 5732 5735 5738 5740 5743 5745 5747 5749 5750 5751 5752 5753 5753 5754 5753 5753 5752 5751 5750 5748 5746 5744 5741 5739 5736 5733 5730 5727
5664 5667 5669 5672 5675 5678 5681 5688 5688 5689 5691 5693 5696 5698 5701 5705 5707 5710 5714 5717 5720 5723 5725 5728 5730 5733 5735 5737 5739 5740 5741 5742 5743 5743 5743 5743 5743 5742 5741 5739 5737 5736 5733 5731 5729 5726 5723 5721 5718
5660 5663 5666 5669 5671 5673 5676 5683 5682 5683 5684 5686 5688 5691 5693 5696 5699 5702 5705 5708 5711 5713 5716 5718 5720 5723 5725 5727 5729 5730 5731 5732 5733 5733 5733 5733 5732 5731 5730 5729 5727 5725 5723 5721 5719 5717 5714 5711 5708